Change the Weather History Date:

Monday, October 29, 2012

  Actual Average Record
Temperature  
Mean Temperature 50 °F -  
Max Temperature 64 °F 58 °F 78 °F (2004)
Min Temperature 37 °F 40 °F 32 °F (2011)
Degree Days  
Heating Degree Days 14    
Moisture  
Dew Point 27 °F    
Average Humidity 44    
Maximum Humidity 65    
Minimum Humidity 28    
Precipitation  
Precipitation 0.00 in - - ()
Sea Level Pressure  
Sea Level Pressure 30.16 in    
Wind  
Wind Speed 12 mph (South)    
Max Wind Speed 23 mph    
Max Gust Speed 30 mph    
Visibility 10 miles    
Events      
Averages and records for this station are not official NWS values.
T = Trace of Precipitation, MM = Missing Value Source: NWS Daily Summary

Daily Weather History Graph

Daily Weather History Graph

Search for Another Location

Airport or City:

Trip Planner

Search our weather history database for the weather conditions in past years. The results will help you decide how hot, cold, wet, or windy it might be!

Date:

Astronomy

Oct. 29, 2012 Rise Set
Actual Time 7:52 AM CDT 6:32 PM CDT
Civil Twilight 7:25 AM CDT 6:59 PM CDT
Nautical Twilight 6:54 AM CDT 7:30 PM CDT
Astronomical Twilight 6:23 AM CDT 8:01 PM CDT
Moon 6:26 PM CDT (10/29) 7:43 AM CDT (10/29)
Length of Visible Light 11h 34m
Length of Day
10h 40m
Full, 100% of the Moon is Illuminated
Oct 29
Full
Oct 29
Full
Nov 6
Last Quarter
Nov 13
New
Nov 20
First Quarter

Hourly Weather History & Observations

Time (CDT) Temp. Windchill Dew Point Humidity Pressure Visibility Wind Dir Wind Speed Gust Speed Precip Events Conditions
12:15 AM 44.6 °F 39.7 °F 24.8 °F 46% 30.24 in 10.0 mi South 9.2 mph - N/A   Overcast
12:35 AM 44.6 °F 37.8 °F 23.0 °F 43% 30.22 in 10.0 mi South 15.0 mph - N/A   Overcast
12:55 AM 44.6 °F 39.7 °F 24.8 °F 46% 30.23 in 10.0 mi SSE 9.2 mph - N/A   Overcast
1:15 AM 44.6 °F 38.8 °F 23.0 °F 43% 30.23 in 10.0 mi South 11.5 mph - N/A   Overcast
1:35 AM 44.6 °F 39.7 °F 24.8 °F 46% 30.23 in 10.0 mi South 9.2 mph - N/A   Overcast
1:55 AM 44.6 °F 39.2 °F 24.8 °F 46% 30.23 in 10.0 mi SSE 10.4 mph - N/A   Mostly Cloudy
2:15 AM 44.6 °F 39.7 °F 24.8 °F 46% 30.23 in 10.0 mi SSE 9.2 mph - N/A   Clear
2:35 AM 44.6 °F 40.2 °F 24.8 °F 46% 30.24 in 10.0 mi SSE 8.1 mph - N/A   Clear
2:55 AM 44.6 °F 39.2 °F 24.8 °F 46% 30.24 in 10.0 mi South 10.4 mph - N/A   Clear
3:15 AM 44.6 °F 38.1 °F 24.8 °F 46% 30.22 in 10.0 mi South 13.8 mph - N/A   Clear
3:35 AM 42.8 °F 36.2 °F 24.8 °F 49% 30.22 in 10.0 mi South 12.7 mph 19.6 mph N/A   Clear
3:55 AM 42.8 °F 36.2 °F 24.8 °F 49% 30.22 in 10.0 mi South 12.7 mph - N/A   Clear
4:15 AM 42.8 °F 37.0 °F 23.0 °F 46% 30.22 in 10.0 mi SSE 10.4 mph - N/A   Clear
4:35 AM 42.8 °F 37.5 °F 24.8 °F 49% 30.22 in 10.0 mi SSE 9.2 mph - N/A   Clear
4:55 AM 39.2 °F 33.0 °F 24.8 °F 56% 30.23 in 10.0 mi SSE 9.2 mph - N/A   Clear
5:15 AM 39.2 °F 33.0 °F 24.8 °F 56% 30.22 in 10.0 mi SSE 9.2 mph - N/A   Clear
6:15 AM 37.4 °F 30.8 °F 24.8 °F 60% 30.24 in 10.0 mi SSE 9.2 mph - N/A   Clear
6:35 AM 37.4 °F 30.8 °F 24.8 °F 60% 30.24 in 10.0 mi SSE 9.2 mph - N/A   Clear
6:55 AM 37.4 °F 30.3 °F 24.8 °F 60% 30.23 in 10.0 mi SSE 10.4 mph - N/A   Clear
7:15 AM 37.4 °F 30.8 °F 24.8 °F 60% 30.23 in 10.0 mi SSE 9.2 mph - N/A   Clear
7:35 AM 37.4 °F 30.3 °F 24.8 °F 60% 30.24 in 10.0 mi SSE 10.4 mph - N/A   Clear
7:55 AM 37.4 °F 30.3 °F 26.6 °F 65% 30.23 in 10.0 mi SSE 10.4 mph - N/A   Mostly Cloudy
8:15 AM 37.4 °F 29.8 °F 26.6 °F 65% 30.23 in 10.0 mi South 11.5 mph - N/A   Overcast
8:35 AM 39.2 °F 31.6 °F 26.6 °F 61% 30.25 in 10.0 mi South 12.7 mph - N/A   Overcast
8:55 AM 39.2 °F 31.2 °F 26.6 °F 61% 30.24 in 10.0 mi South 13.8 mph - N/A   Overcast
9:35 AM 42.8 °F 35.8 °F 28.4 °F 57% 30.24 in 10.0 mi South 13.8 mph - N/A   Mostly Cloudy
9:55 AM 46.4 °F 39.8 °F 26.6 °F 46% 30.24 in 10.0 mi South 16.1 mph - N/A   Mostly Cloudy
10:15 AM 48.2 °F - 28.4 °F 46% 30.24 in 10.0 mi South 17.3 mph 23.0 mph N/A   Scattered Clouds
10:35 AM 48.2 °F - 26.6 °F 43% 30.24 in 10.0 mi South 16.1 mph - N/A   Partly Cloudy
10:55 AM 51.8 °F - 26.6 °F 38% 30.23 in 10.0 mi South 21.9 mph - N/A   Clear
11:15 AM 53.6 °F - 28.4 °F 38% 30.22 in 10.0 mi South 17.3 mph 24.2 mph N/A   Clear
11:35 AM 53.6 °F - 28.4 °F 38% 30.22 in 10.0 mi SSW 20.7 mph 26.5 mph N/A   Clear
11:55 AM 55.4 °F - 28.4 °F 36% 30.22 in 10.0 mi SSW 18.4 mph 26.5 mph N/A   Clear
12:35 PM 57.2 °F - 28.4 °F 33% 30.20 in 10.0 mi SSW 21.9 mph 26.5 mph N/A   Clear
12:55 PM 59.0 °F - 28.4 °F 31% 30.18 in 10.0 mi South 20.7 mph - N/A   Clear
1:15 PM 60.8 °F - 28.4 °F 29% 30.17 in 10.0 mi SSW 19.6 mph 27.6 mph N/A   Clear
1:35 PM 60.8 °F - 28.4 °F 29% 30.16 in 10.0 mi South 21.9 mph 28.8 mph N/A   Clear
1:55 PM 62.6 °F - 30.2 °F 30% 30.15 in 10.0 mi SSW 18.4 mph 29.9 mph N/A   Clear
2:15 PM 62.6 °F - 30.2 °F 30% 30.13 in 10.0 mi SSW 23.0 mph 28.8 mph N/A   Clear
2:35 PM 62.6 °F - 30.2 °F 30% 30.13 in 10.0 mi SSW 21.9 mph 26.5 mph N/A   Clear
2:55 PM 62.6 °F - 30.2 °F 30% 30.11 in 10.0 mi SSW 19.6 mph 26.5 mph N/A   Clear
3:35 PM 64.4 °F - 30.2 °F 28% 30.10 in 10.0 mi SSW 20.7 mph 26.5 mph N/A   Clear
3:55 PM 64.4 °F - 30.2 °F 28% 30.10 in 10.0 mi SSW 16.1 mph 25.3 mph N/A   Clear
4:15 PM 64.4 °F - 30.2 °F 28% 30.09 in 10.0 mi SSW 19.6 mph 26.5 mph N/A   Clear
4:35 PM 64.4 °F - 30.2 °F 28% 30.09 in 10.0 mi SSW 16.1 mph 23.0 mph N/A   Clear
4:55 PM 64.4 °F - 30.2 °F 28% 30.09 in 10.0 mi SSW 16.1 mph - N/A   Clear
5:15 PM 64.4 °F - 30.2 °F 28% 30.08 in 10.0 mi SSW 17.3 mph 23.0 mph N/A   Clear
5:35 PM 60.8 °F - 30.2 °F 31% 30.08 in 10.0 mi SSW 15.0 mph 18.4 mph N/A   Clear
5:55 PM 59.0 °F - 30.2 °F 34% 30.08 in 10.0 mi SSW 10.4 mph - N/A   Clear
6:15 PM 55.4 °F - 30.2 °F 38% 30.08 in 9.0 mi South 6.9 mph - N/A   Clear
6:35 PM 55.4 °F - 30.2 °F 38% 30.08 in 9.0 mi SSE 6.9 mph - N/A   Clear
6:55 PM 51.8 °F - 28.4 °F 41% 30.09 in 10.0 mi SSE 8.1 mph - N/A   Clear
7:15 PM 51.8 °F - 28.4 °F 41% 30.09 in 10.0 mi SSE 6.9 mph - N/A   Clear
7:35 PM 51.8 °F - 28.4 °F 41% 30.09 in 10.0 mi SSE 8.1 mph - N/A   Clear
7:55 PM 50.0 °F - 28.4 °F 43% 30.09 in 10.0 mi SE 8.1 mph - N/A   Clear
8:15 PM 50.0 °F - 28.4 °F 43% 30.09 in 10.0 mi SSE 8.1 mph - N/A   Clear
8:35 PM 48.2 °F - 28.4 °F 46% 30.08 in 10.0 mi SSE 10.4 mph - N/A   Clear
8:55 PM 48.2 °F - 28.4 °F 46% 30.08 in 10.0 mi SSE 9.2 mph - N/A   Clear
9:15 PM 48.2 °F - 28.4 °F 46% 30.08 in 10.0 mi SSE 9.2 mph - N/A   Clear
9:35 PM 48.2 °F - 28.4 °F 46% 30.08 in 10.0 mi SSE 9.2 mph - N/A   Clear
9:55 PM 48.2 °F - 28.4 °F 46% 30.08 in 10.0 mi SSE 9.2 mph - N/A   Clear
10:15 PM 46.4 °F 41.9 °F 28.4 °F 50% 30.08 in 10.0 mi SSE 9.2 mph - N/A   Clear
10:35 PM 46.4 °F 41.5 °F 28.4 °F 50% 30.08 in 10.0 mi SSE 10.4 mph - N/A   Clear
10:55 PM 48.2 °F - 28.4 °F 46% 30.08 in 10.0 mi South 10.4 mph - N/A   Clear
11:15 PM 48.2 °F - 28.4 °F 46% 30.07 in 10.0 mi SSE 10.4 mph - N/A   Clear
11:35 PM 46.4 °F 42.4 °F 28.4 °F 50% 30.07 in 10.0 mi SSE 8.1 mph - N/A   Clear
11:55 PM 44.6 °F 40.2 °F 28.4 °F 53% 30.07 in 10.0 mi SSE 8.1 mph - N/A   Clear